Weather History for Mountain Home, ID

Change the Weather History Date:

Saturday, February 15, 2014

  Actual Average Record
Temperature  
Mean Temperature 45 °F 35 °F  
Max Temperature 49 °F 45 °F 62 °F (1934)
Min Temperature 40 °F 24 °F -2 °F (1935)
Degree Days  
Heating Degree Days 20 30  
Month to date heating degree days 416 473  
Cooling Degree Days 0 0  
Month to date cooling degree days 0 0  
Moisture  
Dew Point 42 °F    
Average Humidity 100    
Maximum Humidity 100    
Minimum Humidity 99    
Precipitation  
Precipitation 0.07 in 0.03 in 0.78 in (1949)
Month to date precipitation 0.50 0.43  
Sea Level Pressure  
Sea Level Pressure 29.96 in    
Wind  
Wind Speed 7 mph (SE)    
Max Wind Speed 26 mph    
Max Gust Speed 32 mph    
Visibility 6 miles    
Events Rain    
T = Trace of Precipitation, MM = Missing Value Source: NWS Daily Summary

Daily Weather History Graph

Daily Weather History Graph

Search for Another Location

Airport:

Trip Planner

Search our weather history database for the weather conditions in past years. The results will help you decide how hot, cold, wet, or windy it might be!

Date:

Astronomy

Feb. 15, 2014 Rise Set
Actual Time 7:40 AM MST 6:14 PM MST
Civil Twilight 7:11 AM MST 6:44 PM MST
Nautical Twilight 6:38 AM MST 7:17 PM MST
Astronomical Twilight 6:05 AM MST 7:50 PM MST
Moon 7:21 PM MST (2/15) 7:39 AM MST (2/15)
Length of Visible Light 11h 32m
Length of Day
10h 33m
Waxing Gibbous, 99% of the Moon is Illuminated
Feb 15
Waxing Gibbous
Feb 22
Last Quarter
Mar 1
New
Mar 8
First Quarter
Mar 16
Full

Hourly Weather History & Observations

Time (MST) Temp. Windchill Dew Point Humidity Pressure Visibility Wind Dir Wind Speed Gust Speed Precip Events Conditions
12:13 AM 42.8 °F 37.5 °F 42.8 °F 100% 30.00 in 10.0 mi WNW 9.2 mph - N/A Rain Light Rain
12:38 AM 41.0 °F 35.8 °F 41.0 °F 100% 30.00 in 10.0 mi NW 8.1 mph - N/A   Overcast
12:43 AM 41.0 °F 36.4 °F 41.0 °F 100% 30.00 in 10.0 mi WNW 6.9 mph - N/A   Overcast
12:58 AM 41.5 °F 37.8 °F 41.5 °F 100% 30.04 in 10.0 mi WNW 5.8 mph - 0.00 in   Light Drizzle
1:23 AM 41.0 °F 36.4 °F 41.0 °F 100% 30.01 in 10.0 mi NW 6.9 mph - N/A Rain Light Rain
1:38 AM 41.0 °F 36.4 °F 41.0 °F 100% 30.00 in 10.0 mi NW 6.9 mph - N/A Rain Light Rain
1:43 AM 41.0 °F 36.4 °F 41.0 °F 100% 30.01 in 10.0 mi WNW 6.9 mph - N/A Rain Light Rain
1:53 AM 41.0 °F 36.4 °F 41.0 °F 100% 30.01 in 10.0 mi NW 6.9 mph - N/A Rain Light Rain
1:58 AM 41.4 °F 36.8 °F 41.2 °F 99% 30.04 in 10.0 mi NW 6.9 mph - 0.02 in Rain Light Rain
2:23 AM 41.0 °F 36.4 °F 41.0 °F 100% 30.01 in 10.0 mi NW 6.9 mph - N/A Rain Light Rain
2:28 AM 41.0 °F 37.1 °F 41.0 °F 100% 30.01 in 10.0 mi NW 5.8 mph - N/A Rain Light Rain
2:58 AM 40.3 °F 38.2 °F 40.3 °F 100% 30.04 in 10.0 mi West 3.5 mph - 0.00 in Rain Light Rain
3:18 AM 41.0 °F - 41.0 °F 100% 30.01 in 8.0 mi SW 2.3 mph - N/A Rain Light Rain
3:28 AM 39.2 °F 35.9 °F 39.2 °F 100% 30.01 in 10.0 mi SW 4.6 mph - N/A   Light Drizzle
3:43 AM 39.2 °F 37.0 °F 39.2 °F 100% 30.01 in 7.0 mi SW 3.5 mph - N/A   Overcast
3:48 AM 39.2 °F - 39.2 °F 100% 30.01 in 3.0 mi SSW 2.3 mph - N/A   Mostly Cloudy
3:53 AM 39.2 °F 37.0 °F 39.2 °F 100% 30.01 in 1.2 mi SW 3.5 mph - N/A Rain Light Rain
3:58 AM 39.9 °F - 39.9 °F 100% 30.04 in 0.8 mi SW 2.3 mph - 0.01 in Rain Light Rain
4:08 AM 39.2 °F - 39.2 °F 100% 30.00 in 0.8 mi South 2.3 mph - N/A Rain Light Rain
4:13 AM 39.2 °F - 39.2 °F 100% 30.00 in 1.0 mi SSW 2.3 mph - N/A Rain Light Rain
4:18 AM 39.2 °F - 39.2 °F 100% 29.99 in 1.2 mi SSW 2.3 mph - N/A   Light Drizzle
4:23 AM 39.2 °F - 39.2 °F 100% 30.00 in 1.5 mi SSW 2.3 mph - N/A   Light Drizzle
4:28 AM 39.2 °F - 39.2 °F 100% 29.99 in 1.8 mi SSW 2.3 mph - N/A   Overcast
4:33 AM 39.2 °F - 39.2 °F 100% 29.99 in 2.0 mi SSW 2.3 mph - N/A   Overcast
4:38 AM 39.2 °F - 39.2 °F 100% 29.99 in 1.5 mi SSW 2.3 mph - N/A   Overcast
4:43 AM 39.2 °F - 39.2 °F 100% 29.99 in 1.2 mi SW 2.3 mph - N/A   Overcast
4:48 AM 39.2 °F - 39.2 °F 100% 30.00 in 1.0 mi West 1.2 mph - N/A   Light Drizzle
4:53 AM 39.2 °F - 39.2 °F 100% 30.00 in 1.2 mi Calm Calm - N/A Rain Light Rain
4:58 AM 39.7 °F - 39.7 °F 100% 30.03 in 1.2 mi Calm Calm - 0.01 in Rain Light Rain
5:08 AM 39.2 °F - 39.2 °F 100% 30.00 in 1.0 mi Calm Calm - N/A Rain Light Rain
5:23 AM 39.2 °F - 39.2 °F 100% 30.00 in 1.0 mi ESE 1.2 mph - N/A Rain Light Rain
5:33 AM 39.2 °F - 39.2 °F 100% 30.00 in 1.5 mi Calm Calm - N/A Rain Light Rain
5:38 AM 39.2 °F - 39.2 °F 100% 30.00 in 1.8 mi Calm Calm - N/A Rain Light Rain
5:48 AM 39.2 °F - 39.2 °F 100% 30.00 in 1.5 mi Calm Calm - N/A Rain Light Rain
5:53 AM 39.2 °F - 39.2 °F 100% 30.00 in 2.0 mi ESE 2.3 mph - N/A Rain Light Rain
5:58 AM 39.2 °F - - N/A% 30.03 in 2.5 mi SE 2.3 mph - 0.02 in Rain Light Rain
6:23 AM 39.2 °F 37.0 °F - N/A% 30.00 in 3.0 mi ESE 3.5 mph - N/A Rain Light Rain
6:28 AM 39.2 °F 35.9 °F - N/A% 30.00 in 3.0 mi SE 4.6 mph - N/A Rain Light Rain
6:43 AM 39.2 °F 37.0 °F - N/A% 30.00 in 2.5 mi SE 3.5 mph - N/A Rain Light Rain
6:48 AM 39.2 °F 35.9 °F - N/A% 30.00 in 3.0 mi ESE 4.6 mph - N/A Rain Light Rain
6:53 AM 39.2 °F 35.9 °F - N/A% 29.99 in 4.0 mi ESE 4.6 mph - N/A Rain Light Rain
6:58 AM 39.2 °F 37.0 °F - N/A% 30.03 in 5.0 mi ESE 3.5 mph - 0.03 in   Light Drizzle
7:03 AM 39.2 °F 35.9 °F - N/A% 29.99 in 6.0 mi ESE 4.6 mph - N/A   Haze
7:28 AM 39.2 °F 35.0 °F - N/A% 29.98 in 10.0 mi East 5.8 mph - N/A Rain Light Rain
7:58 AM 39.2 °F 35.0 °F - N/A% 30.02 in 10.0 mi East 5.8 mph - 0.00 in   Light Drizzle
8:08 AM 39.2 °F 33.6 °F - N/A% 29.98 in 10.0 mi East 8.1 mph - N/A   Light Drizzle
8:58 AM 41.0 °F 35.8 °F - N/A% 30.01 in 10.0 mi East 8.1 mph - 0.00 in   Overcast
9:08 AM 41.0 °F 34.7 °F - N/A% 29.97 in 10.0 mi East 10.4 mph - N/A   Overcast
9:13 AM 41.0 °F 35.8 °F 41.0 °F 100% 29.98 in 10.0 mi East 8.1 mph - N/A   Overcast
9:59 AM 42.8 °F 37.0 °F 42.8 °F 100% 30.00 in 10.0 mi East 10.4 mph - N/A   Overcast
10:58 AM 44.1 °F 36.5 °F 44.1 °F 100% 29.97 in 10.0 mi ESE 17.3 mph - N/A   Mostly Cloudy
11:58 AM 45.3 °F 37.8 °F 45.3 °F 100% 29.95 in 10.0 mi ESE 18.4 mph - N/A   Mostly Cloudy
12:58 PM 46.6 °F - 46.4 °F 99% 29.94 in 10.0 mi ESE 20.7 mph - N/A   Overcast
1:58 PM 46.9 °F - 46.9 °F 100% 29.88 in 10.0 mi East 18.4 mph - N/A   Mostly Cloudy
2:58 PM 48.0 °F - 48.0 °F 100% 29.85 in 10.0 mi ESE 23.0 mph - N/A   Mostly Cloudy
3:58 PM 46.9 °F - 46.9 °F 100% 29.81 in 10.0 mi East 18.4 mph - N/A   Overcast
4:58 PM 46.9 °F - 46.9 °F 100% 29.81 in 10.0 mi ESE 23.0 mph - N/A   Mostly Cloudy
5:58 PM 46.2 °F 37.5 °F 46.2 °F 100% 29.78 in 10.0 mi ESE 26.5 mph 32.2 mph N/A   Overcast
6:58 PM 45.5 °F 37.6 °F 45.5 °F 100% 29.77 in 10.0 mi ESE 20.7 mph - N/A   Mostly Cloudy
7:58 PM 45.1 °F 38.1 °F 45.1 °F 100% 29.76 in 10.0 mi ESE 16.1 mph - N/A   Partly Cloudy
8:58 PM 46.0 °F 39.3 °F 45.9 °F 99% 29.75 in 10.0 mi SE 16.1 mph 23.0 mph N/A   Mostly Cloudy
9:58 PM 46.9 °F - 46.8 °F 99% 29.74 in 10.0 mi SE 9.2 mph - N/A   Mostly Cloudy
10:58 PM 45.7 °F 41.5 °F 45.7 °F 100% 29.74 in 10.0 mi ESE 8.1 mph - N/A   Overcast
11:58 PM 44.2 °F 38.8 °F 44.2 °F 100% 29.75 in 10.0 mi ENE 10.4 mph - N/A   Scattered Clouds